�N����,����,�g�[���i���ԁj���x,�g�[�����x,��g�[���i���ցj���x,����
 2003/03/01, 0:00,17.9,45,16.3,10.9
 2003/03/01, 0:15,17.9,45,16.2,11
 2003/03/01, 0:30,18.1,44,16.3,11.1
 2003/03/01, 0:45,18,44,16.3,11.2
 2003/03/01, 1:00,18,45,16.3,11.3
 2003/03/01, 1:15,18,45,16.3,11.3
 2003/03/01, 1:30,18.1,44,16.3,11.4
 2003/03/01, 1:45,18,44,16.4,11.5
 2003/03/01, 2:00,18.1,44,16.3,11.6
 2003/03/01, 2:15,18,44,16.3,11.7
 2003/03/01, 2:30,18.3,43,16.3,11.8
 2003/03/01, 2:45,18.8,42,16.3,11.9
 2003/03/01, 3:00,19.2,41,16.3,11.9
 2003/03/01, 3:15,19.5,40,16.4,12
 2003/03/01, 3:30,19.7,38,16.3,12.1
 2003/03/01, 3:45,19.4,39,16.4,10.3
 2003/03/01, 4:00,19.1,40,16.4,10.4
 2003/03/01, 4:15,18.9,40,16.4,10.4
 2003/03/01, 4:30,18.8,40,16.4,10.5
 2003/03/01, 4:45,18.6,40,16.5,10.6
 2003/03/01, 5:00,18.6,41,16.4,10.7
 2003/03/01, 5:15,18.5,41,16.4,10.8
 2003/03/01, 5:30,18.3,42,16.4,10.9
 2003/03/01, 5:45,18.2,42,16.4,11
 2003/03/01, 6:00,18.1,42,16.5,11
 2003/03/01, 6:15,18.1,43,16.4,11.2
 2003/03/01, 6:30,18.1,43,16.5,11.2
 2003/03/01, 6:45,18,43,16.4,11.3
 2003/03/01, 7:00,17.8,44,16.5,11.2
 2003/03/01, 7:15,17.8,44,16.5,10.9
 2003/03/01, 7:30,17.8,46,16.3,11
 2003/03/01, 7:45,17.9,48,16.4,11
 2003/03/01, 8:00,17.8,50,16.4,11.1
 2003/03/01, 8:15,18,52,16.7,11.2
 2003/03/01, 8:30,18.1,51,16.7,11.3
 2003/03/01, 8:45,18.3,52,16.6,11.4
 2003/03/01, 9:00,18.5,53,16.3,11.5
 2003/03/01, 9:15,18.4,51,16.3,11.5
 2003/03/01, 9:30,18.5,52,16.3,11.6
 2003/03/01, 9:45,18.6,51,16.5,11.7
 2003/03/01,10:00,18.5,51,16.4,9.7
 2003/03/01,10:15,18.7,50,16.5,10
 2003/03/01,10:30,18.7,49,16.5,10
 2003/03/01,10:45,18.6,49,16.6,10.6
 2003/03/01,11:00,18.4,49,16.6,10.7
 2003/03/01,11:15,18.2,49,16.7,10.7
 2003/03/01,11:30,18.3,49,16.5,10.8
 2003/03/01,11:45,18.1,49,16.7,10.9
 2003/03/01,12:00,18,50,16.7,10.9
 2003/03/01,12:15,18.1,49,16.5,11
 2003/03/01,12:30,18,49,16.6,11.1
 2003/03/01,12:45,17.8,49,16.4,11.2
 2003/03/01,13:00,17.9,49,16.6,11.3
 2003/03/01,13:15,17.9,49,16.5,11.4
 2003/03/01,13:30,17.7,49,16.5,11.4
 2003/03/01,13:45,17.8,49,16.5,11.5
 2003/03/01,14:00,17.8,49,16.5,11.6
 2003/03/01,14:15,17.7,51,16.5,11.7
 2003/03/01,14:30,17.7,49,16.7,11.8
 2003/03/01,14:45,17,53,16.3,12
 2003/03/01,15:00,17.3,52,16.5,12
 2003/03/01,15:15,18.1,51,16.6,10.8
 2003/03/01,15:30,18.7,51,16.4,10.8
 2003/03/01,15:45,19,52,16.4,10.9
 2003/03/01,16:00,19,51,16.4,10.9
 2003/03/01,16:15,19.3,51,16.4,11
 2003/03/01,16:30,19.3,50,16.5,11.1
 2003/03/01,16:45,19.7,50,16.4,11.2
 2003/03/01,17:00,19.8,49,16.4,11.3
 2003/03/01,17:15,19.8,49,16.4,11.3
 2003/03/01,17:30,20.1,49,16.5,11.4
 2003/03/01,17:45,20.4,49,16.6,11.2
 2003/03/01,18:00,20.1,49,16.7,11.2
 2003/03/01,18:15,20,49,16.4,11.3
 2003/03/01,18:30,20.5,49,16.4,11.4
 2003/03/01,18:45,20.5,49,16.4,11.4
 2003/03/01,19:00,20.8,53,16.4,11.5
 2003/03/01,19:15,21,58,16.5,10.7
 2003/03/01,19:30,21,59,16.5,9.9
 2003/03/01,19:45,21,60,16.4,9.9
 2003/03/01,20:00,21,62,16.3,10
 2003/03/01,20:15,21,60,16.3,10.1
 2003/03/01,20:30,20.9,64,16.1,10.2
 2003/03/01,20:45,20.9,61,16.2,10.4
 2003/03/01,21:00,20.9,61,16.2,10.5
 2003/03/01,21:15,20.8,60,16.2,10.6
 2003/03/01,21:30,20.5,59,15.9,9.6
 2003/03/01,21:45,20.5,56,16.1,9.6
 2003/03/01,22:00,20.6,56,16.1,9.7
 2003/03/01,22:15,20.6,56,16.1,9.7
 2003/03/01,22:30,20.6,57,16.1,10.1
 2003/03/01,22:45,20.6,56,16.1,10.2
 2003/03/01,23:00,20.5,56,16,10.2
 2003/03/01,23:15,20.4,54,16.1,10.3
 2003/03/01,23:30,20.4,55,16,10.4
 2003/03/01,23:45,20.6,54,16,10.5
 2003/03/02, 0:00,20.5,54,15.9,10.6
 2003/03/02, 0:15,20.5,52,15.9,10.7
 2003/03/02, 0:30,20.6,51,15.9,10.8
 2003/03/02, 0:45,20.7,50,15.8,10.9
 2003/03/02, 1:00,20.6,50,15.8,10.5
 2003/03/02, 1:15,20.1,51,15.9,10.6
 2003/03/02, 1:30,19.9,51,15.8,10.6
 2003/03/02, 1:45,19.7,52,15.9,10.7
 2003/03/02, 2:00,19.5,52,15.9,10.8
 2003/03/02, 2:15,19.4,51,15.9,10.8
 2003/03/02, 2:30,19.4,51,15.9,10.9
 2003/03/02, 2:45,19.3,51,15.9,11
 2003/03/02, 3:00,19.2,51,15.9,11.1
 2003/03/02, 3:15,19.1,51,15.8,11.2
 2003/03/02, 3:30,19.1,51,15.9,11.3
 2003/03/02, 3:45,19,51,15.8,11.4
 2003/03/02, 4:00,19,51,15.8,11.5
 2003/03/02, 4:15,19,50,15.6,11.5
 2003/03/02, 4:30,19,50,15.7,11.6
 2003/03/02, 4:45,18.9,50,15.6,11.7
 2003/03/02, 5:00,18.7,51,15.5,11.8
 2003/03/02, 5:15,18.7,50,15.6,11.9
 2003/03/02, 5:30,18.7,50,15.5,11.9
 2003/03/02, 5:45,18.7,50,15.7,12
 2003/03/02, 6:00,18.6,50,15.6,12.1
 2003/03/02, 6:15,18.5,50,15.7,12.2
 2003/03/02, 6:30,18.6,50,15.5,12.3
 2003/03/02, 6:45,18.7,50,15.6,12.3
 2003/03/02, 7:00,18.6,50,15.7,12.4
 2003/03/02, 7:15,18.6,50,15.7,11
 2003/03/02, 7:30,19.1,53,15.6,11.1
 2003/03/02, 7:45,19.5,55,15.7,11.2
 2003/03/02, 8:00,19.9,57,15.8,11.2
 2003/03/02, 8:15,19.7,56,15.8,11.3
 2003/03/02, 8:30,19.5,55,15.8,10.6
 2003/03/02, 8:45,19.3,53,15.8,10.7
 2003/03/02, 9:00,19.1,52,15.9,10.7
 2003/03/02, 9:15,19.1,50,16,10.8
 2003/03/02, 9:30,19.1,50,15.9,10.9
 2003/03/02, 9:45,19.2,49,15.9,11
 2003/03/02,10:00,19.2,48,16,11.1
 2003/03/02,10:15,19.2,48,15.9,11.2
 2003/03/02,10:30,19.3,48,15.9,11.3
 2003/03/02,10:45,19.4,48,16,11.3
 2003/03/02,11:00,19.5,48,15.9,11.4
 2003/03/02,11:15,19.5,48,16,11.9
 2003/03/02,11:30,19.4,49,16,12
 2003/03/02,11:45,19.3,48,16,10.8
 2003/03/02,12:00,19.3,48,16.1,10.8
 2003/03/02,12:15,19.4,49,16,10.9
 2003/03/02,12:30,19.5,49,16.2,11
 2003/03/02,12:45,19.3,49,16.3,11.1
 2003/03/02,13:00,19,50,16.6,10.3
 2003/03/02,13:15,19,50,16.7,10.3
 2003/03/02,13:30,19,49,16.6,10.4
 2003/03/02,13:45,19,49,16.7,10.5
 2003/03/02,14:00,19,49,16.7,10.6
 2003/03/02,14:15,19,49,16.8,10.7
 2003/03/02,14:30,19.1,48,16.6,10.7
 2003/03/02,14:45,19.2,48,16.7,10.8
 2003/03/02,15:00,19.3,48,16.6,10.9
 2003/03/02,15:15,19.3,48,16.6,11
 2003/03/02,15:30,19.3,48,16.6,11.1
 2003/03/02,15:45,19.3,48,16.7,10.7
 2003/03/02,16:00,19.3,47,16.8,10.7
 2003/03/02,16:15,18.9,47,17.2,10.6
 2003/03/02,16:30,19.2,47,17,10.7
 2003/03/02,16:45,19.1,47,17,10.7
 2003/03/02,17:00,19.3,44,17.2,10.8
 2003/03/02,17:15,19,44,16.9,10.8
 2003/03/02,17:30,19,43,16.6,10.9
 2003/03/02,17:45,19,42,16.5,11
 2003/03/02,18:00,19,44,16.5,11.1
 2003/03/02,18:15,18.6,42,16.3,11.2
 2003/03/02,18:30,18.4,41,16.3,11.3
 2003/03/02,18:45,18.3,41,16.2,11.3
 2003/03/02,19:00,18.3,40,16.3,11.4
 2003/03/02,19:15,18.2,41,16.4,11.5
 2003/03/02,19:30,18.3,43,16.4,11.6
 2003/03/02,19:45,19,46,16.4,11.3
 2003/03/02,20:00,20.1,56,16.5,11.4
 2003/03/02,20:15,20.4,55,16.5,11.5
 2003/03/02,20:30,20.2,58,16.3,11.5
 2003/03/02,20:45,20.5,50,16.2,11.6
 2003/03/02,21:00,20.4,50,16.3,9.7
 2003/03/02,21:15,20.8,54,16.3,9.8
 2003/03/02,21:30,21,53,16.3,9.9
 2003/03/02,21:45,21.3,53,16.4,9.9
 2003/03/02,22:00,21,51,16.4,10
 2003/03/02,22:15,21.1,50,16.3,10.1
 2003/03/02,22:30,20.9,50,16.4,10.2
 2003/03/02,22:45,21.2,49,16.3,9.9
 2003/03/02,23:00,20.4,50,16.4,10.1
 2003/03/02,23:15,20.1,51,16.5,10.2
 2003/03/02,23:30,19.9,51,16.5,10.2
 2003/03/02,23:45,19.8,51,16.5,10.3
 2003/03/03, 0:00,19.6,52,16.5,10.4
 2003/03/03, 0:15,19.6,52,16.3,10.5
 2003/03/03, 0:30,19.5,52,16.4,10.6
 2003/03/03, 0:45,19.5,52,16.4,10.7
 2003/03/03, 1:00,19.3,53,16.3,10.8
 2003/03/03, 1:15,19.3,52,16.4,10.9
 2003/03/03, 1:30,19.2,52,16.5,11
 2003/03/03, 1:45,19.1,52,16.5,11
 2003/03/03, 2:00,19,52,16.5,11.2
 2003/03/03, 2:15,19,52,16.4,11.3
 2003/03/03, 2:30,18.9,52,16.5,11.3
 2003/03/03, 2:45,18.9,52,16.4,11.5
 2003/03/03, 3:00,18.9,52,16.5,11.6
 2003/03/03, 3:15,18.8,52,16.5,11.6
 2003/03/03, 3:30,18.8,52,16.4,11.7
 2003/03/03, 3:45,18.7,52,16.4,11.7
 2003/03/03, 4:00,18.8,52,16.5,11.8
 2003/03/03, 4:15,18.8,51,16.4,11.9
 2003/03/03, 4:30,18.6,52,16.5,12
 2003/03/03, 4:45,18.7,52,16.4,12
 2003/03/03, 5:00,18.6,52,16.5,12.1
 2003/03/03, 5:15,18.5,52,16.5,12.2
 2003/03/03, 5:30,18.5,52,16.7,12.3
 2003/03/03, 5:45,18.5,51,16.6,12.4
 2003/03/03, 6:00,18.6,51,16.5,12.4
 2003/03/03, 6:15,18.6,51,16.7,12.5
 2003/03/03, 6:30,18.7,52,16.6,12.9
 2003/03/03, 6:45,18.9,54,16.4,12.9
 2003/03/03, 7:00,18.8,55,16.8,10.5
 2003/03/03, 7:15,18.2,54,16.7,10.7
 2003/03/03, 7:30,18.7,54,16.8,9.9
 2003/03/03, 7:45,18.5,55,16.9,10.2
 2003/03/03, 8:00,18.5,52,16.6,10.2
 2003/03/03, 8:15,18.3,50,16.5,10.3
 2003/03/03, 8:30,18.2,49,16.4,10.3
 2003/03/03, 8:45,18.2,48,16.5,10.4
 2003/03/03, 9:00,18,50,16.6,10.5
 2003/03/03, 9:15,18,50,16.7,10.6
 2003/03/03, 9:30,18.1,50,16.6,10.7
 2003/03/03, 9:45,17.9,51,16.8,10.8
 2003/03/03,10:00,18,51,16.8,10.9
 2003/03/03,10:15,17.9,51,16.8,11
 2003/03/03,10:30,17.8,51,16.8,11.1
 2003/03/03,10:45,17.8,51,16.8,11.2
 2003/03/03,11:00,17.9,52,16.7,11.3
 2003/03/03,11:15,17.8,52,16.8,11.4
 2003/03/03,11:30,17.8,52,16.8,11.5
 2003/03/03,11:45,17.8,52,16.7,11.5
 2003/03/03,12:00,17.8,52,16.7,11.6
 2003/03/03,12:15,17.9,52,16.8,11.7
 2003/03/03,12:30,17.8,52,16.7,11.8
 2003/03/03,12:45,17.9,53,16.8,11.9
 2003/03/03,13:00,17.9,53,16.7,12
 2003/03/03,13:15,17.9,53,16.7,12.1
 2003/03/03,13:30,17.9,53,16.7,12.2
 2003/03/03,13:45,17.9,53,16.7,12.3
 2003/03/03,14:00,17.8,53,16.7,12.3
 2003/03/03,14:15,17.9,53,16.5,12.4
 2003/03/03,14:30,17.8,53,16.4,12.5
 2003/03/03,14:45,17.9,53,16.5,12.6
 2003/03/03,15:00,17.8,53,16.6,12.7
 2003/03/03,15:15,17.8,53,16.7,12.8
 2003/03/03,15:30,17.9,53,16.6,12.8
 2003/03/03,15:45,17.8,53,16.6,12.9
 2003/03/03,16:00,17.9,53,16.7,13
 2003/03/03,16:15,17.8,53,16.7,13
 2003/03/03,16:30,17.9,53,16.6,13.1
 2003/03/03,16:45,17.9,53,16.7,13.2
 2003/03/03,17:00,17.9,53,16.7,13.3
 2003/03/03,17:15,17.8,53,16.6,13.3
 2003/03/03,17:30,17.8,53,16.6,13.4
 2003/03/03,17:45,17.9,52,16.5,13.5
 2003/03/03,18:00,17.8,53,16.7,13.5
 2003/03/03,18:15,17.8,52,16.5,13.6
 2003/03/03,18:30,17.8,51,16.3,13.7
 2003/03/03,18:45,17.8,51,16.2,13.7
 2003/03/03,19:00,17.8,51,16.2,13.8
 2003/03/03,19:15,17.8,51,16,13.9
 2003/03/03,19:30,17.7,50,16.1,13.9
 2003/03/03,19:45,17.7,50,16,14
 2003/03/03,20:00,17.7,50,16,14.1
 2003/03/03,20:15,17.7,50,15.9,14.1
 2003/03/03,20:30,17.6,50,15.9,14.2
 2003/03/03,20:45,17.6,50,16.1,14.2
 2003/03/03,21:00,17.7,50,16.1,14.3
 2003/03/03,21:15,17.6,50,15.9,14.3
 2003/03/03,21:30,17.7,49,15.9,14.4
 2003/03/03,21:45,17.6,49,15.9,14.4
 2003/03/03,22:00,17.6,49,15.8,14.5
 2003/03/03,22:15,18.2,50,15.8,14.5
 2003/03/03,22:30,18.9,50,15.7,14.6
 2003/03/03,22:45,19.3,47,15.6,14.6
 2003/03/03,23:00,19.8,46,15.3,14.7
 2003/03/03,23:15,19.6,45,15.4,14.7
 2003/03/03,23:30,19.7,43,15.4,14.8
 2003/03/03,23:45,19.8,45,15.3,14.8
 2003/03/04, 0:00,20,45,15.3,14.9
 2003/03/04, 0:15,20.1,45,15.1,14.9
 2003/03/04, 0:30,19.9,44,15.1,14.9
 2003/03/04, 0:45,20,45,15.1,15
 2003/03/04, 1:00,20,46,15.1,15
 2003/03/04, 1:15,19.9,46,15.2,15.1
 2003/03/04, 1:30,19.8,47,15.2,10.8
 2003/03/04, 1:45,19.6,47,15.2,10.9
 2003/03/04, 2:00,19.3,47,14.9,11
 2003/03/04, 2:15,19,46,14.8,11.1
 2003/03/04, 2:30,18.7,46,14.5,11.2
 2003/03/04, 2:45,18.7,46,14.4,11.3
 2003/03/04, 3:00,18.5,45,14.4,11.3
 2003/03/04, 3:15,18.4,45,14.3,11.4
 2003/03/04, 3:30,18.4,46,14.4,11.5
 2003/03/04, 3:45,18.4,46,14.4,11.6
 2003/03/04, 4:00,18.3,45,14.1,11.7
 2003/03/04, 4:15,18.2,45,14.2,11.7
 2003/03/04, 4:30,18.1,45,14.1,11.8
 2003/03/04, 4:45,18.2,45,14.4,12
 2003/03/04, 5:00,18.1,44,14.3,12.1
 2003/03/04, 5:15,18,45,14.4,12.1
 2003/03/04, 5:30,18.1,45,14.4,12.2
 2003/03/04, 5:45,18,45,14.4,12.2
 2003/03/04, 6:00,17.9,44,14.3,12.3
 2003/03/04, 6:15,18,44,14.3,12.3
 2003/03/04, 6:30,18.2,45,14.3,12
 2003/03/04, 6:45,18.6,48,14.6,10.3
 2003/03/04, 7:00,18.9,50,14.3,10
 2003/03/04, 7:15,18.4,51,14.7,10
 2003/03/04, 7:30,18.1,50,15,10.1
 2003/03/04, 7:45,18.2,50,15.1,10.2
 2003/03/04, 8:00,17.9,47,14.9,10.3
 2003/03/04, 8:15,17.8,46,14.8,10.3
 2003/03/04, 8:30,17.9,46,15,10.4
 2003/03/04, 8:45,18,46,15.2,10.5
 2003/03/04, 9:00,18.1,46,15.1,10.6
 2003/03/04, 9:15,18.3,46,15.1,10.7
 2003/03/04, 9:30,18.2,46,15.1,10.8
 2003/03/04, 9:45,18.1,46,15.2,10.9
 2003/03/04,10:00,18,46,15.3,11
 2003/03/04,10:15,18.1,46,15.1,11
 2003/03/04,10:30,18,46,15.1,11.1
 2003/03/04,10:45,17.9,47,14.9,11.2
 2003/03/04,11:00,17.7,46,14.9,11.3
 2003/03/04,11:15,17.7,46,14.9,11.4
 2003/03/04,11:30,17.8,46,14.8,11.5
 2003/03/04,11:45,17.7,46,14.8,11.6
 2003/03/04,12:00,17.6,45,14.8,11.7
 2003/03/04,12:15,17.5,46,14.8,11.8
 2003/03/04,12:30,17.5,45,14.8,11.9
 2003/03/04,12:45,17.5,44,14.8,11.9
 2003/03/04,13:00,17.4,45,14.7,12
 2003/03/04,13:15,17.3,45,14.6,12.1
 2003/03/04,13:30,17.4,44,14.7,12.2
 2003/03/04,13:45,17.2,44,14.5,12.3
 2003/03/04,14:00,17.2,44,14.7,12.3
 2003/03/04,14:15,17.2,44,14.5,12.4
 2003/03/04,14:30,17.2,44,14.6,12.5
 2003/03/04,14:45,17.1,44,14.5,12.5
 2003/03/04,15:00,17.1,44,14.6,12.6
 2003/03/04,15:15,17.2,44,14.6,12.7
 2003/03/04,15:30,17.2,43,14.5,12.8
 2003/03/04,15:45,17,44,14.3,12.8
 2003/03/04,16:00,17,44,14.5,12.9
 2003/03/04,16:15,17,43,14.4,13
 2003/03/04,16:30,17,43,14.4,13
 2003/03/04,16:45,16.9,43,14.4,13.1
 2003/03/04,17:00,16.9,43,14.4,13.2
 2003/03/04,17:15,16.8,43,14.2,13.2
 2003/03/04,17:30,16.8,43,14.2,13.3
 2003/03/04,17:45,16.8,43,14.2,13.3
 2003/03/04,18:00,16.7,43,14.1,13.4
 2003/03/04,18:15,16.7,42,14.1,13.5
 2003/03/04,18:30,16.8,42,14.1,13.5
 2003/03/04,18:45,16.6,42,14.1,13.6
 2003/03/04,19:00,16.6,43,14.1,13.6
 2003/03/04,19:15,16.6,42,13.9,13.7
 2003/03/04,19:30,16.6,42,14,13.7
 2003/03/04,19:45,16.6,42,14.1,13.8
 2003/03/04,20:00,16.6,42,13.9,13.8
 2003/03/04,20:15,16.5,42,14,13.9
 2003/03/04,20:30,16.5,42,14.1,13.9
 2003/03/04,20:45,16.6,42,14,14
 2003/03/04,21:00,16.5,42,14.1,14
 2003/03/04,21:15,16.5,43,14.1,14.1
 2003/03/04,21:30,16.4,43,14.1,14.1
 2003/03/04,21:45,16.4,43,14.1,14.2
 2003/03/04,22:00,16.4,43,14.2,14.2
 2003/03/04,22:15,16.4,44,14.3,14.3
 2003/03/04,22:30,16.5,44,14.3,14.3
 2003/03/04,22:45,14.3,43,14,14.3
 2003/03/04,23:00,12,40,14.1,11.4
 2003/03/04,23:15,15.7,40,14,11.4
 2003/03/04,23:30,16.3,39,14.1,11.5
 2003/03/04,23:45,16.4,38,13.9,11.5
 2003/03/05, 0:00,16.6,36,14,11.6
 2003/03/05, 0:15,16.7,38,13.9,11.7
 2003/03/05, 0:30,16.8,40,13.8,11.2
 2003/03/05, 0:45,16.8,40,13.8,11.2
 2003/03/05, 1:00,16.8,40,13.7,11.3
 2003/03/05, 1:15,16.8,41,13.6,11.3
 2003/03/05, 1:30,16.8,41,13.6,11.4
 2003/03/05, 1:45,16.8,41,13.5,11.4
 2003/03/05, 2:00,16.8,41,13.6,11.5
 2003/03/05, 2:15,16.8,42,13.7,11.6
 2003/03/05, 2:30,16.9,42,13.7,11.6
 2003/03/05, 2:45,17,43,13.7,11.7
 2003/03/05, 3:00,17,44,13.7,11.8
 2003/03/05, 3:15,17,44,13.8,11.9
 2003/03/05, 3:30,17,45,13.8,11.9
 2003/03/05, 3:45,17,45,13.8,12
 2003/03/05, 4:00,17,45,13.9,12.1
 2003/03/05, 4:15,17,45,13.8,12.1
 2003/03/05, 4:30,17.1,44,13.8,12.2
 2003/03/05, 4:45,17,45,13.8,12.3
 2003/03/05, 5:00,17,45,13.7,12.3
 2003/03/05, 5:15,17,45,13.8,12.4
 2003/03/05, 5:30,17,45,13.8,12.5
 2003/03/05, 5:45,16.9,45,13.8,12.5
 2003/03/05, 6:00,17,46,13.9,12.6
 2003/03/05, 6:15,17,46,13.8,12.7
 2003/03/05, 6:30,16.9,46,13.8,12.7
 2003/03/05, 6:45,17,46,14,12.8
 2003/03/05, 7:00,17,46,14.1,10.2
 2003/03/05, 7:15,17.5,50,14.1,10.4
 2003/03/05, 7:30,17.7,50,14.2,10.6
 2003/03/05, 7:45,17.5,47,14.6,10.7
 2003/03/05, 8:00,17.5,44,14.5,10.8
 2003/03/05, 8:15,17.3,40,14.4,10.8
 2003/03/05, 8:30,17.2,39,14.2,10.9
 2003/03/05, 8:45,17.2,39,14.4,11
 2003/03/05, 9:00,17.1,41,14.3,11.1
 2003/03/05, 9:15,17.1,42,14.4,11.1
 2003/03/05, 9:30,17,43,14.4,11.2
 2003/03/05, 9:45,16.9,44,14.4,11.3
 2003/03/05,10:00,16.9,45,14.4,11.3
 2003/03/05,10:15,17,45,14.6,11.4
 2003/03/05,10:30,17,44,14.6,11.5
 2003/03/05,10:45,17,45,14.6,11.6
 2003/03/05,11:00,17,45,14.7,11.7
 2003/03/05,11:15,17,46,14.7,11.7
 2003/03/05,11:30,17,46,14.7,11.8
 2003/03/05,11:45,17,46,14.8,11.9
 2003/03/05,12:00,16.9,46,14.8,11.9
 2003/03/05,12:15,17,46,14.7,12
 2003/03/05,12:30,17,46,15,12.1
 2003/03/05,12:45,17,46,14.9,12.2
 2003/03/05,13:00,17.1,45,14.9,12.2
 2003/03/05,13:15,17,46,15,12.3
 2003/03/05,13:30,17,44,14.8,12.4
 2003/03/05,13:45,17,43,14.8,12.4
 2003/03/05,14:00,16.9,43,14.7,12.5
 2003/03/05,14:15,17,43,14.7,12.6
 2003/03/05,14:30,16.9,44,14.8,12.6
 2003/03/05,14:45,16.9,43,14.5,12.7
 2003/03/05,15:00,16.8,43,14.5,12.8
 2003/03/05,15:15,17,42,14.5,12.8
 2003/03/05,15:30,16.9,42,14.6,12.9
 2003/03/05,15:45,16.8,43,14.6,13
 2003/03/05,16:00,16.9,43,14.6,13
 2003/03/05,16:15,16.7,44,14.7,13.1
 2003/03/05,16:30,16.7,44,14.8,13.1
 2003/03/05,16:45,16.8,44,14.7,13.2
 2003/03/05,17:00,16.8,44,14.6,13.2
 2003/03/05,17:15,16.7,45,14.7,13.3
 2003/03/05,17:30,16.7,45,14.7,13.4
 2003/03/05,17:45,16.5,44,14.7,13.4
 2003/03/05,18:00,16.5,43,14.7,13.5
 2003/03/05,18:15,16.4,43,14.8,13.5
 2003/03/05,18:30,16.3,43,14.7,13.6
 2003/03/05,18:45,16.4,43,14.7,13.6
 2003/03/05,19:00,16.4,43,14.8,13.7
 2003/03/05,19:15,16.3,43,14.7,13.7
 2003/03/05,19:30,16.3,43,14.7,13.8
 2003/03/05,19:45,16.4,43,14.7,13.8
 2003/03/05,20:00,16.3,44,14.6,13.9
 2003/03/05,20:15,16.3,44,14.5,13.9
 2003/03/05,20:30,16.4,44,14.4,14
 2003/03/05,20:45,16.3,45,14.5,14
 2003/03/05,21:00,16.3,45,14.4,14.1
 2003/03/05,21:15,16.3,45,14.4,14.1
 2003/03/05,21:30,16.3,45,14.4,14.2
 2003/03/05,21:45,16.4,45,14.4,14.2
 2003/03/05,22:00,16.3,46,14.4,14.2
 2003/03/05,22:15,16.3,45,14.5,14.3
 2003/03/05,22:30,16.3,45,14.6,14.3
 2003/03/05,22:45,16.5,45,14.6,12.9
 2003/03/05,23:00,16.7,47,14.6,12.8
 2003/03/05,23:15,16.6,47,14.5,12.8
 2003/03/05,23:30,16.6,46,14.7,12.9
 2003/03/05,23:45,16.6,46,14.5,12.9
 2003/03/06, 0:00,16.6,46,14.5,13
 2003/03/06, 0:15,16.7,46,14.6,13
 2003/03/06, 0:30,16.9,46,14.5,13.1
 2003/03/06, 0:45,16.8,46,14.4,13.1
 2003/03/06, 1:00,16.8,46,14.5,13.2
 2003/03/06, 1:15,16.9,46,14.5,10
 2003/03/06, 1:30,16.8,46,14.6,10
 2003/03/06, 1:45,16.8,46,14.5,10.1
 2003/03/06, 2:00,16.6,46,14.5,10.2
 2003/03/06, 2:15,16.7,46,14.5,10.2
 2003/03/06, 2:30,16.7,46,14.6,10.3
 2003/03/06, 2:45,16.7,46,14.6,10.4
 2003/03/06, 3:00,16.6,47,14.4,10.5
 2003/03/06, 3:15,16.6,47,14.5,10.6
 2003/03/06, 3:30,16.6,47,14.6,10.7
 2003/03/06, 3:45,16.6,47,14.6,10.8
 2003/03/06, 4:00,16.7,47,14.5,10.9
 2003/03/06, 4:15,16.6,46,14.5,11
 2003/03/06, 4:30,16.5,46,14.6,11
 2003/03/06, 4:45,16.5,46,14.7,11.1
 2003/03/06, 5:00,16.4,45,14.5,11.2
 2003/03/06, 5:15,16.4,45,14.7,11.3
 2003/03/06, 5:30,16.4,45,14.6,11.4
 2003/03/06, 5:45,16.4,45,14.7,11.5
 2003/03/06, 6:00,16.4,46,14.7,11.5
 2003/03/06, 6:15,16.3,45,14.7,11.6
 2003/03/06, 6:30,16.5,46,14.8,11.7
 2003/03/06, 6:45,16.4,44,14.8,11.8
 2003/03/06, 7:00,16.4,43,14.6,10.1
 2003/03/06, 7:15,16.3,43,14.6,10.2
 2003/03/06, 7:30,16.1,43,14.6,10.3
 2003/03/06, 7:45,16,42,14.7,10.4
 2003/03/06, 8:00,16.5,44,14.9,10.4
 2003/03/06, 8:15,16.5,45,15,10.5
 2003/03/06, 8:30,16.5,46,15,10.6
 2003/03/06, 8:45,16.5,45,15,10.7
 2003/03/06, 9:00,16.6,44,15.2,10.7
 2003/03/06, 9:15,16.7,44,15,10.8
 2003/03/06, 9:30,16.7,43,15,10.9
 2003/03/06, 9:45,16.7,43,15.1,11
 2003/03/06,10:00,16.6,43,15.2,11
 2003/03/06,10:15,16.7,43,15.2,11.2
 2003/03/06,10:30,16.7,42,15.2,11.2
 2003/03/06,10:45,16.6,43,15.1,11.3
 2003/03/06,11:00,16.6,43,15.3,11.4
 2003/03/06,11:15,16.6,43,15.3,11.5
 2003/03/06,11:30,16.6,43,15.4,11.5
 2003/03/06,11:45,16.6,43,15.4,11.6
 2003/03/06,12:00,16.6,43,15.3,11.7
 2003/03/06,12:15,16.6,43,15.3,11.8
 2003/03/06,12:30,16.7,43,15.4,11.9
 2003/03/06,12:45,16.7,43,15.3,11.9
 2003/03/06,13:00,16.7,43,15.3,12
 2003/03/06,13:15,16.6,43,15.4,12.1
 2003/03/06,13:30,16.7,43,15.5,12.2
 2003/03/06,13:45,16.6,43,15.4,12.2
 2003/03/06,14:00,16.6,43,15.5,12.3
 2003/03/06,14:15,16.6,43,15.4,12.4
 2003/03/06,14:30,16.6,43,15.3,12.4
 2003/03/06,14:45,16.6,43,15.3,12.5
 2003/03/06,15:00,16.6,43,15.5,12.6
 2003/03/06,15:15,16.5,43,15.4,12.6
 2003/03/06,15:30,16.6,43,15.5,12.7
 2003/03/06,15:45,16.6,43,15.5,12.8
 2003/03/06,16:00,16.5,44,15.4,12.8
 2003/03/06,16:15,16.5,44,15.5,12.9
 2003/03/06,16:30,16.4,44,15.3,13
 2003/03/06,16:45,16.4,44,15.4,13
 2003/03/06,17:00,16.5,45,15.4,13.1
 2003/03/06,17:15,16.4,45,15.3,13.1
 2003/03/06,17:30,16.4,45,15.3,13.2
 2003/03/06,17:45,16.4,45,15.3,13.3
 2003/03/06,18:00,16.3,45,15.4,13.3
 2003/03/06,18:15,16.4,45,15.3,13.4
 2003/03/06,18:30,16.3,45,15.3,13.4
 2003/03/06,18:45,16.3,45,15.4,13.5
 2003/03/06,19:00,16.4,45,15.4,13.5
 2003/03/06,19:15,16.3,45,15.3,13.6
 2003/03/06,19:30,16.3,46,15.3,13.6
 2003/03/06,19:45,16.3,46,15.4,13.7
 2003/03/06,20:00,16.3,46,15.4,13.7
 2003/03/06,20:15,16.3,46,15.3,13.8
 2003/03/06,20:30,16.4,46,15.3,13.8
 2003/03/06,20:45,16.3,46,15.4,13.9
 2003/03/06,21:00,16.3,46,15.4,13.9
 2003/03/06,21:15,16.2,46,15.3,14
 2003/03/06,21:30,16.2,46,15.3,14
 2003/03/06,21:45,16.3,46,15.4,14.1
 2003/03/06,22:00,16.2,46,15.2,14.1
 2003/03/06,22:15,16.3,46,15.3,14.2
 2003/03/06,22:30,16.1,49,15.3,14.2
 2003/03/06,22:45,16.1,49,15.4,14.3
 2003/03/06,23:00,16.3,50,15.3,12.6
 2003/03/06,23:15,17,52,15.5,10.5
 2003/03/06,23:30,17.2,53,15.8,10.5
 2003/03/06,23:45,17.3,56,15.5,10.6
 2003/03/07, 0:00,17.5,59,15.4,10.7
 2003/03/07, 0:15,17.5,56,15.2,10.7
 2003/03/07, 0:30,17.4,54,15.2,10.9
 2003/03/07, 0:45,17.2,54,15.3,10.9
 2003/03/07, 1:00,17,53,15.4,11
 2003/03/07, 1:15,17,52,15.4,11.1
 2003/03/07, 1:30,17,51,15.5,11.2
 2003/03/07, 1:45,16.9,51,15.5,11.2
 2003/03/07, 2:00,16.9,51,15.5,11.3
 2003/03/07, 2:15,16.9,51,15.4,11.4
 2003/03/07, 2:30,16.8,51,15.5,11.5
 2003/03/07, 2:45,16.8,51,15.4,11.6
 2003/03/07, 3:00,16.8,51,15.5,11.7
 2003/03/07, 3:15,16.7,51,15.5,10.6
 2003/03/07, 3:30,16.7,51,15.5,10.6
 2003/03/07, 3:45,16.6,51,15.5,10.7
 2003/03/07, 4:00,16.6,51,15.5,10.8
 2003/03/07, 4:15,16.6,51,15.5,10.9
 2003/03/07, 4:30,16.6,52,15.5,11
 2003/03/07, 4:45,16.5,52,15.5,11
 2003/03/07, 5:00,16.5,52,15.5,11.1
 2003/03/07, 5:15,16.5,52,15.6,11.2
 2003/03/07, 5:30,16.5,52,15.6,11.3
 2003/03/07, 5:45,16.4,52,15.5,11.4
 2003/03/07, 6:00,16.4,52,15.5,11.4
 2003/03/07, 6:15,16.5,52,15.6,11.5
 2003/03/07, 6:30,16.8,52,15.7,11.8
 2003/03/07, 6:45,17.5,51,15.7,11.8
 2003/03/07, 7:00,17.6,51,15.8,10.3
 2003/03/07, 7:15,17.3,52,15.9,10.3
 2003/03/07, 7:30,17.1,52,15.8,9.9
 2003/03/07, 7:45,17.1,54,16,9.9
 2003/03/07, 8:00,17.1,52,16,10
 2003/03/07, 8:15,17,51,15.8,10
 2003/03/07, 8:30,17,51,15.8,10.1
 2003/03/07, 8:45,16.9,51,15.8,10.2
 2003/03/07, 9:00,16.9,51,15.8,10.3
 2003/03/07, 9:15,16.9,51,15.9,10.4
 2003/03/07, 9:30,16.9,52,15.8,10.5
 2003/03/07, 9:45,16.9,51,15.8,10.6
 2003/03/07,10:00,16.9,52,15.9,10.7
 2003/03/07,10:15,16.9,52,16,10.8
 2003/03/07,10:30,16.9,52,15.9,10.8
 2003/03/07,10:45,16.9,52,16,10.9
 2003/03/07,11:00,16.9,52,15.9,11
 2003/03/07,11:15,17,52,16,11.1
 2003/03/07,11:30,17,52,15.9,11.2
 2003/03/07,11:45,17,52,16,11.3
 2003/03/07,12:00,17,52,16,11.4
 2003/03/07,12:15,17,52,16,11.5
 2003/03/07,12:30,17.1,52,15.9,11.5
 2003/03/07,12:45,17.1,52,15.9,11.6
 2003/03/07,13:00,17.2,52,15.9,11.7
 2003/03/07,13:15,17.1,53,15.9,11.8
 2003/03/07,13:30,17.1,53,15.9,11.9
 2003/03/07,13:45,17.2,52,15.9,12
 2003/03/07,14:00,17.2,53,16,12
 2003/03/07,14:15,17.1,53,16,12.1
 2003/03/07,14:30,17.1,53,15.9,12.2
 2003/03/07,14:45,17.1,52,15.9,12.3
 2003/03/07,15:00,17.1,52,15.9,12.4
 2003/03/07,15:15,17.1,52,15.9,12.4
 2003/03/07,15:30,17.3,51,16,12.5
 2003/03/07,15:45,17.3,52,16,12.6
 2003/03/07,16:00,17.3,51,15.9,12.7
 2003/03/07,16:15,17.3,51,15.9,12.7
 2003/03/07,16:30,17.2,51,15.9,12.8
 2003/03/07,16:45,17.2,51,15.9,12.9
 2003/03/07,17:00,17.2,51,15.8,12.9
 2003/03/07,17:15,17.2,50,15.7,13
 2003/03/07,17:30,17.2,50,15.7,13.1
 2003/03/07,17:45,17.1,50,15.6,13.1
 2003/03/07,18:00,17.1,49,15.5,13.2
 2003/03/07,18:15,17.1,49,15.7,13.3
 2003/03/07,18:30,17,49,15.6,13.3
 2003/03/07,18:45,17,49,15.5,13.4
 2003/03/07,19:00,17,48,15.5,13.5
 2003/03/07,19:15,16.9,48,15.4,13.5
 2003/03/07,19:30,16.9,48,15.5,13.6
 2003/03/07,19:45,17,48,15.5,13.6
 2003/03/07,20:00,16.9,48,15.5,13.7
 2003/03/07,20:15,17,48,15.4,13.8
 2003/03/07,20:30,17.2,48,15.4,12.7